Location: Bonigeard
(47.9780°N, 3.4510°W)
Time: 08:04:40
(UTC+00:00)

Daily predictions for brighter satellites

Satellite Brightness Start Highest point End
(mag) Time Altitude Azimuth Time Altitude Azimuth Time Altitude Azimuth
Cosmos 2237 Rocket 2.5 16:48:08 10° S 16:53:39 54° ESE 16:59:11 10° NE
Meteor 2-6 Rocket 4.2 16:48:18 10° S 16:53:42 87° E 16:59:11 10° NNE
BREEZE-M R/B 3.4 16:48:23 10° W 16:55:43 72° N 16:59:19 10° E
Cosmos 2322 Rocket 4.3 16:54:01 10° W 16:57:45 18° NW 17:01:30 10° N
Cosmos 1812 2.9 16:54:41 10° S 16:58:27 55° E 17:02:15 10° NNE
USA 215 3.5 16:52:45 10° ENE 16:59:14 62° SE 17:05:42 10° SW
Cosmos 2333 Rocket 2.8 16:53:59 10° SW 16:59:40 60° WNW 17:05:24 10° NNE
STARLINK-29 4.0 16:56:54 10° SW 17:00:14 40° SE 17:03:35 10° ENE
Aureole 1 Rocket 3.7 16:58:13 10° SSE 17:00:34 21° E 17:03:09 10° NE
Cosmos 1782 4.5 16:57:51 10° SW 17:01:29 34° WNW 17:05:08 10° N
Cosmos 2219 Rocket 2.8 16:56:10 10° SW 17:01:42 59° WNW 17:07:18 10° NNE
Cosmos 1733 Rocket 3.1 16:57:52 10° N 17:02:17 86° E 17:06:42 10° S
Cosmos 1500 3.1 16:58:36 10° N 17:02:23 78° E 17:06:07 10° SSE
SJ-7 4.4 16:58:26 10° SSE 17:02:35 73° ENE 17:06:43 10° N
Cosmos 1943 Rocket 3.4 16:59:54 10° N 17:04:08 21° NE 17:08:19 10° E
Nadezhda 4 Rocket 4.1 17:00:44 10° S 17:06:55 60° E 17:13:06 10° NNE
SL-16 R/B 4.4 17:05:31 10° WNW 17:08:33 14° NW 17:11:36 10° N
Radarsat Rocket 4.1 17:02:35 10° SSE 17:08:39 80° WSW 17:14:30 10° NNW
Cosmos 921 Rocket 3.6 17:06:54 10° N 17:10:49 33° ENE 17:14:46 10° SE
CZ-4 R/B 2.9 17:11:49 10° E 17:13:59 15° ENE 17:16:08 10° NNE
CZ-4B R/B 3.4 17:16:20 10° N 17:19:25 29° WNW 17:22:27 10° SW
AQUARIUS 4.2 17:16:57 10° SSE 17:21:22 58° ENE 17:25:49 10° N
NOSS 0 Rocket 4.1 17:17:07 10° SSW 17:23:21 80° WNW 17:29:39 10° NNE
Cosmos 1980 3.8 17:19:48 10° SSW 17:25:28 85° WNW 17:31:10 10° NNE
BREEZE-M DEB (TANK) 2.7 17:21:29 10° W 17:27:16 68° S 17:29:56 12° E
Cosmos 2026 Rocket 4.4 17:22:52 10° SSE 17:28:24 39° E 17:34:00 10° NNE
Cosmos 1441 Rocket 3.4 17:26:02 10° N 17:29:44 45° ENE 17:33:21 10° SSE
Cosmos 1975 4.0 17:27:53 10° NNE 17:30:59 21° ENE 17:34:04 10° ESE
SMAP 3.0 17:26:53 10° SSE 17:31:32 81° ENE 17:36:14 10° NNW
H-2A R/B 2.5 17:28:00 10° SSE 17:31:40 72° ENE 17:35:22 10° N
Cosmos 2251 Rocket 4.0 17:27:00 10° SSW 17:32:16 64° WNW 17:37:32 10° NNE
Envisat 3.2 17:27:52 10° SE 17:32:43 47° ENE 17:37:35 10° N
USA 267 3.3 17:27:44 10° ESE 17:34:18 90° W 17:40:53 10° NW
Cosmos 2297 3.6 17:29:26 10° NNW 17:35:10 70° ENE 17:40:48 10° SE
Cosmos 1782 Rocket 3.8 17:32:28 10° N 17:36:40 45° ENE 17:40:49 10° SSE
STARLINK-67 3.6 17:36:24 10° NW 17:38:54 30° N 17:39:48 24° NE
Genesis I 3.5 17:36:51 10° NW 17:40:44 67° SW 17:44:32 10° SSE
Cosmos 407 Rocket 3.9 17:36:23 10° S 17:41:17 43° ESE 17:45:31 14° NE
USA 229 DEB 4.4 17:34:55 10° NW 17:41:30 38° NNE 17:47:14 15° E
USA 229 4.4 17:35:01 10° NW 17:41:36 38° NNE 17:47:15 15° E
Exosat Rocket 4.0 17:36:40 10° SW 17:41:45 61° WNW 17:46:51 10° NNE
PSLV R/B 4.1 17:37:40 10° N 17:41:50 75° WNW 17:45:55 10° SSW
Meteor 1-27 Rocket 4.1 17:37:48 10° SSW 17:43:34 70° WNW 17:49:29 10° N
Cosmos 1862 Rocket 4.4 17:41:03 10° SSW 17:45:18 51° WNW 17:49:38 10° N
Cosmos 1666 2.7 17:42:37 10° NNW 17:46:22 79° W 17:50:05 10° S
NOAA 12 4.0 17:41:08 10° SSE 17:46:24 71° ENE 17:51:40 10° N
Okean 2 Rocket 3.9 17:44:24 10° N 17:48:21 29° ENE 17:52:17 10° SE
Cosmos 1703 Rocket 3.5 17:44:28 10° S 17:48:53 66° E 17:53:21 10° NNE
STARLINK-46 3.8 17:47:10 10° WNW 17:49:29 26° N 17:49:58 24° NNE
Sich 1 Rocket 3.7 17:47:48 10° N 17:52:06 50° ENE 17:56:22 10° SSE
Cosmos 2221 Rocket 4.5 17:49:07 10° SSE 17:52:54 28° E 17:54:06 24° ENE
COSMOS 2428 4.3 17:48:02 10° WSW 17:52:57 29° NW 17:57:54 10° NNE
Abrixas rocket 4.2 17:52:37 10° S 17:54:21 14° SE 17:54:41 14° SE
FALCON 9 DEB 3.2 17:55:05 10° WSW 17:58:35 73° NNW 17:59:57 34° NE
Cosmos 1627 Rocket 4.4 17:57:35 10° S 18:03:40 77° E 18:09:50 10° NNE
Cosmos 2195 Rocket 4.5 17:59:41 10° S 18:05:55 86° E 18:12:17 10° N
YAOGAN 6 2.5 18:02:26 10° SSE 18:05:56 59° ENE 18:09:29 10° N
SeaSat 1 4.3 18:12:56 15° NNE 18:12:56 15° NNE 18:14:41 10° N
Meteor 1-18 Rocket 4.2 18:07:21 10° S 18:12:58 64° E 18:18:30 10° NNE
Ariane Rocket 4.4 18:18:03 21° NNE 18:18:03 21° NNE 18:20:15 10° N
CZ-4 R/B 4.3 18:11:55 10° SSE 18:16:03 68° ENE 18:20:13 10° N
Cosmos 1867 3.6 18:11:24 10° NW 18:16:54 87° SW 18:22:20 10° SE
Cosmos 1655 Rocket 4.2 18:11:38 10° SSE 18:17:35 47° E 18:23:32 10° NNE
Cosmos 1092 Rocket 4.3 18:11:38 10° SSW 18:17:54 67° WNW 18:24:08 10° N
Cosmos 1743 2.8 18:17:18 10° NNW 18:21:11 76° W 18:25:03 10° S
Cosmos 2369 Rocket 2.3 18:17:01 10° NNW 18:22:32 52° ENE 18:25:39 25° ESE
Okean 1-7 3.4 18:18:35 10° SSW 18:22:54 66° W 18:27:18 10° N
ATLAS 2AS CENTAUR R/B 4.3 18:17:21 10° WNW 18:24:03 28° NNW 18:28:36 17° NNE
Lacrosse 5 rocket 2.7 18:21:31 10° WNW 18:25:04 26° NNW 18:25:54 24° N
COSMO-SKYMED 1 2.4 18:24:20 29° NNE 18:26:32 75° ESE 18:30:52 10° S
Okean-O 3.5 18:23:08 10° S 18:27:26 51° W 18:31:47 10° NNW
Meteor 2-13 Rocket 4.5 18:21:48 10° SSE 18:27:39 53° E 18:32:10 17° NNE
STARLINK-60 3.8 18:25:59 10° W 18:29:13 43° NNW 18:29:13 43° NNW
STARLINK-52 3.4 18:25:47 10° W 18:29:15 58° NNW 18:29:24 57° N
SL-16 R/B 2.3 18:23:36 10° SSW 18:29:18 76° WNW 18:33:05 22° NNE
Cosmos 1300 Rocket 4.3 18:25:13 10° N 18:34:41 - SSE 18:27:54 34° NNE
Lacrosse 5 3.0 18:25:57 10° S 18:29:46 26° SE 18:29:46 26° SE
SL-4 R/B 2.1 18:27:03 10° WNW 18:30:50 55° N 18:30:59 54° NNE
YAOGAN 1 2.4 18:27:28 10° SSE 18:31:46 72° ENE 18:36:06 10° N
FengYun 1-2 T 4.3 18:26:51 10° S 18:32:20 78° WSW 18:37:53 10° NNW
Okean 1 3.5 18:30:49 10° SSW 18:34:47 67° W 18:36:53 26° N
Cosmos 1603 4.1 18:31:14 10° S 18:36:33 41° ESE 18:36:35 41° ESE
STARLINK-29 3.7 18:33:59 10° W 18:37:15 50° NNW 18:37:15 50° NNW
Cosmos 1190 Rocket 4.1 18:32:32 10° SSW 18:37:44 75° WNW 18:40:40 26° NNE
Cosmos 2237 Rocket 3.7 18:32:59 10° WSW 18:38:01 31° NW 18:42:36 12° N
Cosmos 676 Rocket 3.8 18:35:08 10° SSW 18:40:16 73° ESE 18:41:41 48° NE
USA 215 3.6 18:39:07 31° NE 18:42:15 58° NNW 18:48:38 10° W
Cosmos 1954 Rocket 3.8 18:41:54 10° SSW 18:47:04 78° ESE 18:48:10 56° NE
CZ-4 R/B 1.8 18:44:46 10° S 18:48:35 58° WSW 18:52:25 10° NNW
Cosmos 1943 Rocket 2.1 18:43:00 10° NNW 18:48:41 89° WSW 18:52:56 18° SSE
S3M 3.9 18:44:35 10° N 18:50:50 89° E 18:56:58 10° S
STARLINK-43 4.1 18:48:39 10° WSW 18:51:30 50° SW 18:51:30 50° SW
IRIDIUM 104 4.2 18:47:58 10° S 18:53:03 67° E 18:53:03 67° E
Meteor 2-4 Rocket 3.6 18:50:06 10° S 18:55:55 70° E 18:57:05 55° NE
Cosmos 2266 Rocket 3.9 18:51:31 10° S 18:57:49 64° E 18:59:28 48° NE
Okean 3 3.9 18:54:26 10° S 18:57:38 52° SSW 18:57:38 52° SSW
Uosat 12 SS-18 rocket 4.3 18:55:20 10° NW 19:00:05 67° SW 19:00:31 62° SSW
CSL-04 Rocket 3.9 18:56:24 10° S 19:01:39 67° WSW 19:06:58 10° NNW
IRIDIUM 114 4.1 18:57:02 10° S 19:02:11 80° ESE 19:02:11 80° ESE
CZ-4C R/B 3.0 18:58:19 10° S 19:01:22 33° SSE 19:01:22 33° SSE
Meteor 1-19 Rocket 4.4 18:58:56 10° SSW 19:04:24 68° WNW 19:07:27 27° N
Cosmos 2344 4.3 18:57:50 10° NW 19:07:13 72° NE 19:13:45 33° ESE
Cosmos 1975 4.3 19:03:54 10° NNW 19:07:34 36° W 19:11:14 10° SSW
Cosmos 1140 Rocket 4.2 19:06:25 10° SW 19:11:23 50° WNW 19:13:01 37° NNW
IRIDIUM 103 4.2 19:06:11 10° S 19:11:20 85° WSW 19:11:20 85° WSW
NOSS 3-1 (C) 4.0 19:15:18 10° NW 19:22:47 88° SW 19:25:30 48° SE
Cosmos 2263 4.3 19:20:40 10° NNW 19:26:25 76° WSW 19:26:25 76° WSW
USA 229 DEB 3.9 19:25:52 10° NW 19:33:07 76° SW 19:34:44 57° SSE
USA 229 3.9 19:25:58 10° NW 19:33:12 77° SW 19:34:46 58° SSE
Cosmos 2315 Rocket 4.4 19:29:17 10° N 19:34:03 53° NNW 19:34:03 53° NNW
NOSS 3-1 (A) 3.9 19:31:12 10° NW 19:38:40 84° NE 19:39:02 81° E
Cosmos 2369 Rocket 3.9 20:01:32 10° NW 20:06:17 28° WSW 20:07:35 26° SW
Lacrosse 5 4.2 20:07:36 10° WSW 20:09:00 19° WSW 20:09:00 19° WSW
SL-16 R/B 4.4 20:10:32 10° W 20:14:25 18° NW 20:14:59 18° NNW
ATLAS 2AS CENTAUR R/B 4.4 20:11:05 10° NW 20:16:01 25° N 20:16:01 25° N
USA 215 4.5 20:26:28 34° NW 20:26:28 34° NW 20:30:39 10° WNW
